[[{"header":{"parameterUnit":"m.s-1","parameterCategory":1,"la1":30.2992,"la2":30.254,"lo1":-89.0895,"lo2":-89.0443,"dy":0.0025,"dx":0.0025,"nx":19,"ny":19,"refTime":"2026-04-09T03:00:00:Z","depth":0,"parameterNumber":2,"parameterNumberName":"U-component_of_WINDS"},"data":[0,0,0,-5.1812,-5.1812,-5.176,-5.176,-5.1745,-5.1746,0,0,0,0,0,0,0,0,0,0,0,-5.1858,-5.1859,-5.1813,-5.1812,-5.176,-5.176,-5.1745,-5.1746,0,0,0,0,0,0,0,0,0,0,0,-5.1858,-5.1859,-5.186,-5.1812,-5.176,-5.176,-5.1745,-5.1766,0,0,0,0,0,0,0,0,0,0,-5.1808,-5.1879,-5.1858,-5.186,-5.1812,-5.1761,-5.176,-5.1766,-5.1765,-5.1791,0,-5.1821,0,-5.1783,-5.1748,-5.1748,0,0,0,-5.179,-5.188,-5.1839,-5.186,-5.1812,-5.1761,-5.1777,-5.1765,-5.1763,-5.1789,-5.182,-5.1818,-5.1783,-5.1748,-5.1748,-5.1972,-5.1974,0,0,-5.1793,-5.1865,-5.184,-5.184,-5.185,-5.1779,-5.1776,-5.1763,-5.1802,-5.182,-5.1817,-5.1783,-5.1748,-5.1749,-5.197,-5.1972,0,0,0,-5.1816,-5.1868,-5.1826,-5.1842,-5.1828,-5.1778,-5.1775,-5.1802,-5.1782,-5.1816,-5.1783,-5.1749,-5.1749,-5.1967,-5.197,-5.2145,0,0,0,-5.1816,-5.1881,-5.1828,-5.1872,-5.183,-5.1814,-5.1815,-5.1783,-5.178,-5.1783,-5.1749,-5.1749,-5.1965,-5.1969,-5.2135,-5.2216,0,0,0,-5.1851,-5.1885,-5.1888,-5.1876,-5.1856,-5.1813,-5.1791,-5.1781,-5.1761,-5.1748,-5.1749,-5.1963,-5.1968,-5.2127,-5.2201,-5.2298,0,0,0,-5.1909,-5.2043,-5.1892,-5.2029,-5.1858,-5.1921,-5.1791,-5.1834,-5.1845,-5.1749,-5.1965,-5.197,-5.2124,-5.2192,-5.2289,-5.2393,-5.2442,0,0,-5.2119,-5.2071,-5.2146,-5.2009,-5.2118,-5.1923,-5.2058,-5.1998,-5.1931,-5.1962,-5.1967,-5.2139,-5.22,-5.2296,-5.2694,-5.2734,0,0,0,-5.2237,-5.2292,-5.2305,-5.2318,-5.2276,-5.2248,-5.216,-5.2138,-5.2161,-5.1962,-5.2196,-5.2231,-5.2284,-5.233,-5.2365,-5.2406,-5.1994,-5.1994,-5.1993,-5.2638,-5.2545,-5.2663,-5.2565,-5.258,-5.2489,-5.2493,-5.2448,-5.2349,-5.2407,-5.2416,-5.2669,-5.2726,-5.2751,-5.2796,-5.2462,-5.2463,-5.2463,-5.2464,-5.2938,-5.3001,-5.2868,-5.2936,-5.2838,-5.2893,-5.2812,-5.2741,-5.278,-5.2653,-5.2696,-5.2567,-5.2798,-5.2832,-5.2476,-5.2474,-5.2472,-5.2471,-5.247,-5.3191,-5.3205,-5.3177,-5.3188,-5.3208,-5.3104,-5.3148,-5.3056,-5.297,-5.3012,-5.3013,-5.301,-5.2996,-5.3019,-5.3019,-5.302,-5.3021,-5.3022,-5.3022,-5.3465,-5.3427,-5.3475,-5.3444,-5.3442,-5.3428,-5.334,-5.3336,-5.3308,-5.3237,-5.3237,-5.3135,-5.2837,-5.2765,-5.3035,-5.3033,-5.3031,-5.303,-5.3029,-5.3806,-5.3714,-5.3789,-5.3787,-5.3744,-5.3772,-5.3654,-5.3654,-5.3637,-5.3663,-5.3551,-5.3346,-5.329,-5.3263,-5.3203,-5.357,-5.357,-5.357,-5.357,-5.402,-5.3983,-5.404,-5.4044,-5.4037,-5.3939,-5.403,-5.3964,-5.3882,-5.3866,-5.3799,-5.3712,-5.3687,-5.3646,-5.361,-5.3553,-5.4001,-5.4001,-5.4001,-5.4226,-5.4184,-5.4278,-5.4196,-5.4156,-5.4125,-5.4208,-5.4219,-5.4106,-5.4017,-5.3853,-5.3834,-5.3691,-5.3649,-5.3557,-5.3503,-5.3396,0,0]},{"header":{"parameterUnit":"m.s-1","parameterCategory":1,"la1":30.2992,"la2":30.254,"lo1":-89.0895,"lo2":-89.0443,"dy":0.0025,"dx":0.0025,"nx":19,"ny":19,"refTime":"2026-04-09T03:00:00:Z","depth":0,"parameterNumber":3,"parameterNumberName":"V-component_of_WINDS"},"data":[0,0,0,0.9369,0.9368,0.9314,0.9314,0.9226,0.9226,0,0,0,0,0,0,0,0,0,0,0,0.9377,0.9376,0.9369,0.9368,0.9314,0.9314,0.9227,0.9226,0,0,0,0,0,0,0,0,0,0,0,0.9377,0.9376,0.9375,0.9368,0.9314,0.9314,0.9227,0.9273,0,0,0,0,0,0,0,0,0,0,0.9329,0.9328,0.9376,0.9375,0.9367,0.9314,0.9314,0.9276,0.927,0.9244,0,0.9221,0,0.9222,0.9219,0.9218,0,0,0,0.9373,0.9332,0.9326,0.9375,0.9367,0.9314,0.934,0.9273,0.9267,0.9237,0.922,0.9217,0.922,0.9218,0.9218,0.9054,0.9053,0,0,0.9376,0.9361,0.933,0.9322,0.9332,0.9341,0.9338,0.927,0.9248,0.9219,0.9215,0.9219,0.9217,0.9217,0.9055,0.9053,0,0,0,0.9381,0.9363,0.9359,0.9325,0.9317,0.934,0.9336,0.9252,0.9252,0.9214,0.9218,0.9217,0.9216,0.9056,0.9054,0.8988,0,0,0,0.9383,0.9366,0.936,0.935,0.9318,0.9284,0.9319,0.9256,0.9249,0.9218,0.9217,0.9215,0.9057,0.9055,0.8992,0.8957,0,0,0,0.9383,0.9366,0.9356,0.935,0.9326,0.9285,0.9282,0.9255,0.9251,0.9218,0.9214,0.9058,0.9055,0.8996,0.8964,0.8908,0,0,0,0.9378,0.9297,0.9355,0.9266,0.9327,0.9247,0.9282,0.9223,0.9187,0.9216,0.9057,0.9054,0.8997,0.8968,0.8912,0.8856,0.8833,0,0,0.9267,0.9283,0.9232,0.9283,0.9189,0.9256,0.9152,0.9132,0.9142,0.9082,0.9078,0.8991,0.8964,0.8909,0.8713,0.8694,0,0,0,0.9192,0.9155,0.9134,0.9101,0.9086,0.907,0.9068,0.9061,0.9012,0.9109,0.8959,0.8943,0.8911,0.8885,0.8869,0.8841,0.9043,0.9043,0.9043,0.901,0.903,0.8947,0.896,0.8928,0.8929,0.8904,0.8894,0.8921,0.8886,0.8866,0.8745,0.8714,0.8702,0.8673,0.8842,0.8842,0.8842,0.8841,0.8846,0.8795,0.8839,0.8773,0.8794,0.8738,0.8737,0.8758,0.8707,0.8761,0.8734,0.8786,0.8681,0.8656,0.8837,0.8837,0.8838,0.8838,0.8839,0.8725,0.8705,0.8701,0.8657,0.862,0.8637,0.8588,0.8609,0.8628,0.8602,0.8582,0.8583,0.8584,0.8592,0.8592,0.8592,0.8591,0.8591,0.8591,0.8599,0.8598,0.8554,0.8535,0.8518,0.8497,0.8501,0.8483,0.8468,0.8487,0.8487,0.8516,0.8669,0.8705,0.8584,0.8585,0.8586,0.8587,0.8587,0.8418,0.8464,0.8396,0.8379,0.8359,0.832,0.8351,0.8314,0.8303,0.8277,0.8315,0.8426,0.8442,0.8455,0.8484,0.8313,0.8313,0.8313,0.8313,0.8312,0.8326,0.8262,0.8233,0.8208,0.823,0.8151,0.8153,0.8162,0.8156,0.8186,0.8228,0.8241,0.8249,0.8266,0.8293,0.8078,0.8078,0.8078,0.8201,0.8213,0.8141,0.8155,0.8141,0.8129,0.8055,0.8018,0.8038,0.8069,0.8151,0.8161,0.823,0.8252,0.8278,0.8305,0.8355,0,0]}]]